RH
11 12 12 12 11 11 10 10 9 8 8 9 11 16 19 22 23 22 20 20 20 17 14 13 14 16 16 16 15 14 14 14 14 16 21 28 40 54
10 10 10 10 10 11 11 11 12 11 9 10 9 11 13 16 25 25 24 22 23 22 16 14 13 13 18 22 24 25 25 24 21 19 18 18 19 17
11 11 12 12 12 12 12 12 12 13 11 11 11 10 12 13 15 20 28 26 24 24 21 17 17 21 24 26 30 30 28 27 27 27 26 25 24 23
10 9 9 10 10 11 11 12 12 12 12 12 13 13 13 14 14 15 17 29 31 27 26 21 22 26 29 31 30 28 29 32 27 27 24 27 29 27
11 11 12 12 12 12 12 12 12 12 11 11 11 11 11 12 13 14 15 16 22 32 30 29 25 24 27 30 30 30 32 27 15 13 26 37 34 38
18 15 14 14 14 14 15 15 15 14 13 12 11 11 11 11 10 10 11 13 15 20 34 33 31 28 25 25 24 23 22 21 18 21 50 52 46 46
36 26 22 21 21 20 19 18 17 16 14 13 12 12 11 11 11 11 10 10 11 16 30 41 36 36 35 33 31 27 24 30 33 27 41 53 46 62
36 29 27 25 24 22 20 18 18 24 34 41 44 43 37 27 22 19 18 12 10 11 22 40 38 41 47 48 45 42 41 40 39 39 36 64 63 70
51 41 37 33 27 24 26 36 43 49 56 55 57 59 57 58 55 54 52 48 40 26 13 12 40 37 41 41 42 40 43 48 45 47 46 56 86 96
46 49 47 35 32 34 39 42 53 60 53 48 44 43 40 38 34 33 36 41 46 51 45 34 17 19 38 42 39 40 40 41 50 53 54 53 68 87
14 26 44 51 54 54 59 66 70 61 54 45 45 44 36 30 27 23 22 24 27 39 46 47 41 30 16 26 47 48 49 50 45 50 60 57 66 88
5 6 13 37 58 67 64 64 66 61 56 50 48 44 40 36 28 22 17 17 18 20 36 44 45 45 40 23 31 61 66 62 61 50 52 58 64 75
8 10 9 9 17 41 65 65 64 65 58 55 54 54 53 49 41 29 25 21 18 22 45 51 54 53 38 42 33 34 60 78 76 66 49 54 62 64
20 17 15 12 9 9 22 66 76 74 68 68 64 63 61 57 54 45 34 24 23 31 47 61 60 75 34 21 22 30 59 71 98 86 70 59 58 65
12 11 13 12 6 7 8 20 55 74 80 84 84 78 73 67 64 60 46 38 36 44 56 65 68 83 70 37 25 16 16 44 84 87 86 93 90 69
9 8 6 7 6 4 6 12 38 69 83 92 93 90 88 81 74 67 53 50 44 71 70 70 77 81 89 60 26 18 16 13 15 14 19 70 99 99
8 7 6 5 7 8 9 15 48 81 84 83 86 92 95 91 82 73 54 53 69 82 88 87 82 83 83 92 62 26 20 18 15 23 32 28 25 67
10 10 10 10 9 10 16 34 73 97 95 88 87 92 99 96 90 72 56 60 79 84 85 88 85 70 84 92 67 40 25 21 20 18 39 85 93 80
16 14 13 13 12 12 25 41 100 100 99 95 97 100 96 97 96 75 65 67 84 83 88 88 93 87 71 73 95 73 41 32 24 23 21 21 36 69
21 21 19 17 17 22 37 53 100 99 100 95 94 100 98 96 85 74 72 85 92 87 92 93 92 76 62 54 57 95 66 30 27 26 25 24 24 23
24 24 32 27 30 51 66 72 82 98 98 99 100 97 96 90 78 74 88 94 94 94 96 96 94 92 85 89 75 80 96 87 50 39 26 26 27 28
27 64 68 45 55 83 91 90 89 97 96 97 97 97 93 84 78 87 95 94 94 94 95 93 92 95 95 96 91 84 89 94 95 86 64 37 32 31
60 91 90 73 87 100 99 97 98 96 95 97 97 96 94 83 85 93 95 96 94 93 90 90 90 93 94 95 96 96 84 94 97 95 89 92 61 41
Wind_Speed
28 29 29 29 29 29 30 31 32 31 27 24 21 22 25 28 32 31 30 29 28 27 28 30 30 29 27 26 28 30 31 33 34 36 38 42 46 50
29 29 30 30 30 30 30 30 31 33 31 27 27 27 25 27 31 33 34 32 31 31 31 29 28 28 27 28 28 29 30 32 34 37 39 42 44 47
29 29 30 31 30 31 30 30 30 32 33 23 28 28 29 28 30 33 34 35 34 33 32 31 30 30 31 32 32 32 32 33 34 36 39 41 43 46
29 29 30 30 30 31 31 31 31 32 35 30 28 27 29 31 30 31 33 34 35 36 36 32 33 34 34 35 34 34 34 33 35 36 38 41 43 44
29 29 30 30 30 31 31 31 31 32 34 34 28 29 29 30 30 31 31 33 34 36 38 37 35 35 36 36 36 36 36 37 38 37 39 37 35 37
27 27 28 28 28 29 30 30 31 31 32 33 31 29 30 30 30 31 31 32 32 35 38 38 39 38 37 39 39 37 36 38 39 35 33 34 38 43
27 28 28 28 28 29 29 29 30 30 30 31 30 29 28 29 31 31 32 32 31 32 36 38 40 39 38 40 38 40 38 37 37 36 35 37 41 40
25 27 28 28 29 28 28 27 27 27 28 30 30 31 28 28 27 28 29 31 31 29 34 35 39 37 38 41 39 39 38 36 36 36 36 34 35 35
27 28 28 28 28 27 26 25 27 30 32 30 29 28 26 26 27 26 29 32 31 28 33 32 33 39 39 41 40 39 37 35 35 34 37 33 28 28
29 29 30 29 29 28 28 29 31 31 30 26 24 22 23 23 24 25 26 28 29 27 32 35 32 33 38 41 41 40 40 34 35 34 36 34 29 26
30 31 33 32 32 34 36 35 32 28 31 28 25 25 25 25 26 27 28 30 31 30 31 34 32 34 33 35 39 39 39 38 35 33 36 32 28 23
31 32 34 38 38 39 38 36 32 29 32 30 30 29 29 29 30 30 31 32 34 35 34 35 35 36 37 32 30 32 35 38 35 33 34 33 29 27
34 34 35 37 42 44 43 40 37 37 36 35 34 33 33 32 32 33 33 35 36 38 38 40 37 35 38 38 34 30 29 33 33 32 34 34 32 30
42 39 36 40 42 45 46 45 44 44 43 40 38 36 37 36 36 36 36 37 39 39 38 38 40 36 36 36 35 31 29 30 28 27 33 35 34 32
45 47 45 42 43 46 47 48 49 48 48 45 41 40 41 39 38 37 37 38 39 38 37 37 37 36 35 36 36 31 31 31 35 29 29 31 33 35
46 50 51 51 47 46 46 46 47 48 49 48 43 43 42 41 39 38 38 38 37 35 36 35 34 33 34 34 34 31 28 27 28 28 29 33 32 33
51 51 50 49 50 47 44 43 42 44 47 45 43 42 41 40 39 39 38 36 35 33 31 32 31 31 31 32 31 30 28 26 26 22 24 31 34 33
52 53 52 50 46 41 42 40 39 40 42 41 40 40 39 39 38 37 35 35 34 33 31 30 30 27 27 27 26 26 27 25 24 23 23 21 25 24
49 49 49 47 45 40 37 35 34 35 37 38 36 38 38 38 36 34 34 33 33 33 29 28 29 29 27 23 27 26 25 24 23 21 22 22 22 24
47 48 47 43 41 38 35 31 31 35 35 34 34 37 37 33 31 32 33 32 31 29 27 27 26 23 21 21 20 24 24 20 22 20 20 21 21 21
47 46 42 38 37 35 31 29 31 31 32 35 36 32 28 26 28 30 29 28 28 26 25 25 26 27 26 23 19 18 20 22 18 19 19 18 19 19
44 41 35 33 33 32 28 27 30 30 30 31 28 25 24 25 26 26 26 26 24 22 20 20 19 19 20 21 22 21 20 19 19 20 16 14 15 16
39 36 31 29 28 27 27 27 28 30 32 32 25 22 23 23 24 24 24 23 21 18 18 17 18 18 17 17 18 17 16 17 18 17 18 17 15 14
Wind_Direction
277 276 276 277 277 278 280 283 286 287 286 290 290 287 288 286 286 286 283 280 281 278 276 276 272 268 265 264 265 266 267 267 266 265 264 262 260 259
281 281 281 282 283 285 286 287 289 291 290 295 290 291 287 285 285 284 282 281 281 281 279 276 272 270 268 265 264 264 265 267 268 267 265 264 264 263
285 283 282 282 283 284 285 286 288 290 291 289 287 285 288 284 282 283 282 280 279 277 274 273 270 271 273 272 271 270 270 270 270 270 270 269 267 264
288 287 286 286 286 287 289 289 290 291 293 293 291 287 286 287 286 282 282 281 278 277 275 270 268 268 266 269 271 273 273 272 273 273 274 274 274 270
288 288 287 287 287 287 288 288 288 289 291 293 295 293 291 288 288 288 283 279 280 276 275 273 269 267 269 269 271 271 271 270 273 276 282 281 276 273
288 287 287 287 286 286 287 287 287 289 290 292 295 294 293 290 288 285 285 284 278 277 273 272 272 272 271 271 272 273 274 276 278 275 279 280 279 283
294 292 290 288 287 286 285 286 288 290 291 292 295 295 293 291 291 289 287 285 283 278 272 265 265 268 271 271 270 272 273 276 278 278 282 284 284 287
300 297 295 293 290 289 288 288 290 292 293 294 295 294 292 291 289 290 290 290 287 284 276 264 262 264 266 269 271 272 273 275 278 281 284 289 294 291
306 300 296 294 291 289 286 287 291 292 291 291 292 291 293 292 291 291 291 291 290 293 285 277 263 262 261 265 269 270 271 273 275 279 281 288 292 292
307 304 301 297 292 286 284 289 291 289 285 289 290 290 292 294 296 299 299 297 296 294 288 288 285 274 266 263 264 268 270 268 270 275 275 279 286 291
299 298 297 295 291 287 287 288 286 280 283 286 285 289 292 295 297 299 300 300 299 295 291 290 287 284 278 271 266 263 265 264 265 268 271 271 276 274
296 292 290 289 285 283 283 282 280 272 278 278 282 284 287 290 294 297 297 296 297 296 293 287 287 288 283 279 273 266 259 260 257 257 264 266 267 263
313 310 300 287 283 282 280 276 277 271 272 273 275 278 282 285 288 291 292 293 294 293 294 289 287 284 284 283 278 272 265 259 255 258 257 259 261 263
309 308 305 296 286 281 278 276 276 274 270 271 272 274 276 280 284 287 289 291 292 293 292 290 288 285 282 280 281 275 269 266 261 259 258 259 256 257
308 305 300 295 285 280 277 274 271 272 271 270 272 273 274 277 281 285 289 289 290 292 289 287 288 284 281 280 277 275 272 265 264 258 259 258 256 255
299 300 294 289 283 276 273 273 272 270 269 269 271 270 271 273 278 284 288 288 291 289 286 285 285 285 280 278 277 277 274 269 263 259 253 254 253 252
296 293 287 282 283 282 277 272 269 268 268 268 267 267 268 270 275 282 287 286 286 283 282 282 283 282 284 278 271 276 273 269 267 268 264 252 257 253
295 294 292 291 287 282 279 275 272 269 267 266 263 263 264 266 272 280 283 285 281 281 281 281 276 281 283 277 273 272 271 267 263 263 259 255 258 256
298 297 294 292 290 285 277 270 271 268 265 264 260 262 260 264 271 279 282 283 278 276 277 282 278 276 275 285 267 269 273 271 265 258 255 253 250 255
301 301 298 292 288 287 279 269 269 263 260 256 253 257 259 264 274 280 281 279 274 273 275 277 273 274 279 273 280 266 261 264 259 259 252 249 249 249
301 300 296 288 284 286 283 271 262 267 254 254 253 251 258 272 278 281 279 273 271 271 271 274 271 270 270 275 271 275 269 254 262 260 258 252 250 247
300 298 294 287 284 282 279 270 262 270 256 252 239 253 265 273 280 280 276 274 269 267 271 271 272 273 276 269 265 266 269 272 256 259 260 251 246 246
297 297 293 287 284 284 278 267 272 267 257 242 238 252 265 276 281 278 275 268 263 268 270 270 274 277 278 274 269 270 274 264 255 250 253 252 247 242